Location: Izdebno
(52.6670°N, 16.2170°E)
Time: 07:31:09
(UTC+02:00)

Vanguard 1 - Pass Details

Date: 01 March 2024
Orbit: 653 x 3825 km, 34.2° (Epoch: 22 April)

Event Time Altitude Azimuth Distance (km) Brightness Sun altitude
Rises 22:05:14 0° 261° (W) 5,893 14.4 -38.1°
Reaches altitude 10° 22:08:56 10° 254° (WSW) 5,268 13.9 -38.5°
Enters shadow 22:22:35 38° 200° (SSW) 4,436 13.0 -39.7°
